Location: Newark
(33.6333°S, 78.8500°W)
Time: 04:35:21
(UTC+00:00)

Tiros 1 despin weight - Pass Details

Date: 27 September 2019
Orbit: 594 x 643 km, 48.2° (Epoch: 17 October)

Event Time Altitude Azimuth Distance (km) Brightness Sun altitude
Rises 01:48:00 0° 321° (NW) 2,827 ? -31.6°
Enters shadow 01:48:03 - 321° (NW) 2,805 ? -31.7°
Reaches altitude 10° 01:50:17 10° 325° (NW) 1,937 - -32.1°
Maximum altitude 01:54:38 56° 43° (NE) 725 - -32.9°
Drops below altitude 10° 01:59:06 10° 120° (ESE) 1,983 - -33.7°
Sets 02:01:28 0° 124° (SE) 2,903 - -34.1°
